| time (UTC) | temp F | wind direction | speed knots | gust knots | rain 1hr in | rain 24hr in | rain mn in | humidity % | barometer mb |
| 20260502231515 | 0 | 0.0 | 5.2 | 0.00 | 0.00 | 0.00 | |||
| 20260502230516 | 0 | 56 | 0.0 | 2.6 | 0.00 | 0.00 | 0.00 | ||
| 20260502225515 | 0 | 58 | 0.9 | 5.2 | 0.00 | 0.00 | 0.00 | ||
| 20260502224538 | 0 | 28 | 0.9 | 6.1 | 0.00 | 0.00 | 0.00 | ||
| 20260502223517 | 0 | 274 | 0.0 | 2.6 | 0.00 | 0.00 | 0.00 | ||
| 20260502222517 | 0 | 236 | 0.0 | 0.9 | 0.00 | 0.00 | 0.00 | ||
| 20260502221515 | 0 | 0.0 | 6.1 | 0.00 | 0.00 | 0.00 | |||
| 20260502220515 | 0 | 286 | 0.9 | 7.0 | 0.00 | 0.00 | 0.00 | ||
| 20260502215516 | 0 | 257 | 7.0 | 15.6 | 0.00 | 0.00 | 0.00 | ||
| 20260502214517 | 0 | 238 | 3.5 | 13.9 | 0.00 | 0.00 | 0.00 | ||
| 20260502213517 | 0 | 71 | 0.0 | 3.5 | 0.00 | 0.00 | 0.00 | ||
| 20260502212516 | 0 | 71 | 0.0 | 4.3 | 0.00 | 0.00 | 0.00 | ||
| 20260502211536 | 0 | 69 | 0.9 | 5.2 | 0.00 | 0.00 | 0.00 | ||
| 20260502210537 | 0 | 15 | 0.0 | 2.6 | 0.00 | 0.00 | 0.00 | ||
| 20260502205515 | 0 | 97 | 0.0 | 6.1 | 0.00 | 0.00 | 0.00 | ||
| 20260502204515 | 0 | 52 | 0.0 | 4.3 | 0.00 | 0.00 | 0.00 | ||
| 20260502203535 | 0 | 45 | 0.0 | 5.2 | 0.00 | 0.00 | 0.00 | ||
| 20260502202516 | 0 | 47 | 0.0 | 5.2 | 0.00 | 0.00 | 0.00 | ||
| 20260502201538 | 0 | 44 | 0.0 | 5.2 | 0.00 | 0.00 | 0.00 | ||
| 20260502200515 | 0 | 47 | 0.0 | 3.5 | 0.00 | 0.00 | 0.00 | ||
| 20260502195516 | 0 | 46 | 0.9 | 4.3 | 0.00 | 0.00 | 0.00 | ||
| 20260502194515 | 0 | 0.0 | 0.0 | 0.00 | 0.00 | 0.00 | |||
| 20260502193517 | 0 | 45 | 0.0 | 1.7 | 0.00 | 0.00 | 0.00 | ||
| 20260502192515 | 0 | 0.0 | 1.7 | 0.00 | 0.00 | 0.00 | |||
| 20260502191517 | 0 | 46 | 0.0 | 4.3 | 0.00 | 0.00 | 0.00 | ||
| 20260502190515 | 0 | 31 | 0.0 | 1.7 | 0.00 | 0.00 | 0.00 | ||
| 20260502185537 | 0 | 31 | 0.0 | 4.3 | 0.00 | 0.00 | 0.00 | ||
| 20260502184515 | 0 | 35 | 0.0 | 6.1 | 0.00 | 0.00 | 0.00 | ||
| 20260502183515 | 0 | 16 | 1.7 | 7.0 | 0.00 | 0.00 | 0.00 | ||
| 20260502182515 | 0 | 30 | 0.9 | 8.7 | 0.00 | 0.00 | 0.00 | ||
| 20260502181515 | 0 | 27 | 2.6 | 7.0 | 0.00 | 0.00 | 0.00 | ||
| 20260502180517 | 0 | 0.0 | 0.0 | 0.00 | 0.00 | 0.00 | |||
| 20260502170515 | 0 | 299 | 0.9 | 5.2 | 0.00 | 0.00 | 0.00 | ||
| 20260502163538 | 0 | 295 | 0.9 | 5.2 | 0.00 | 0.00 | 0.00 | ||
| 20260502162515 | 75 | 293 | 0.9 | 6.1 | 0.00 | 0.00 | 0.00 | 45 | |
| 20260502161515 | 75 | 258 | 1.7 | 8.7 | 0.00 | 0.00 | 0.00 | 45 | |
| 20260502160515 | 76 | 241 | 5.2 | 9.6 | 0.00 | 0.00 | 0.00 | 43 | |
| 20260502151515 | 77 | 270 | 0.9 | 7.0 | 0.00 | 0.00 | 0.00 | 44 | |
| 20260502150515 | 77 | 236 | 2.6 | 9.6 | 0.00 | 0.00 | 0.00 | 43 | |
| 20260502130516 | 73 | 233 | 3.5 | 12.2 | 0.00 | 0.00 | 0.00 | 51 | |
| 20260502123516 | 71 | 280 | 0.9 | 12.2 | 0.00 | 0.00 | 0.00 | 55 | |
| 20260502122518 | 71 | 250 | 5.2 | 10.4 | 0.00 | 0.00 | 0.00 | 54 | |
| 20260502121516 | 71 | 252 | 3.5 | 11.3 | 0.00 | 0.00 | 0.00 | 55 | |
| 20260502120516 | 72 | 255 | 3.5 | 9.6 | 0.00 | 0.00 | 0.00 | 53 | |
| 20260502115516 | 72 | 248 | 3.5 | 12.2 | 0.00 | 0.00 | 0.00 | 52 | |
| 20260502114516 | 73 | 240 | 5.2 | 11.3 | 0.00 | 0.00 | 0.00 | 51 | |
| 20260502113516 | 72 | 231 | 5.2 | 14.8 | 0.00 | 0.00 | 0.00 | 52 | |
| 20260502112518 | 72 | 218 | 5.2 | 13.9 | 0.00 | 0.00 | 0.00 | 52 | |
| 20260502111538 | 71 | 247 | 4.3 | 13.9 | 0.00 | 0.00 | 0.00 | 52 | |
| 20260502110536 | 71 | 273 | 4.3 | 13.9 | 0.00 | 0.00 | 0.00 | 52 | |
| 20260502105536 | 70 | 238 | 5.2 | 12.2 | 0.00 | 0.00 | 0.00 | 51 | |
| 20260502104516 | 70 | 227 | 7.0 | 18.2 | 0.00 | 0.00 | 0.00 | 53 | |
| 20260502103536 | 70 | 215 | 7.0 | 12.2 | 0.00 | 0.00 | 0.00 | 55 | |
| 20260502102538 | 70 | 253 | 2.6 | 11.3 | 0.00 | 0.00 | 0.00 | 55 | |
| 20260502101516 | 69 | 235 | 4.3 | 10.4 | 0.00 | 0.00 | 0.00 | 56 | |
| 20260502100518 | 68 | 229 | 2.6 | 9.6 | 0.00 | 0.00 | 0.00 | 56 | |
| 20260502091516 | 67 | 255 | 2.6 | 10.4 | 0.00 | 0.00 | 0.00 | 56 | |
| 20260502090518 | 67 | 244 | 3.5 | 10.4 | 0.00 | 0.00 | 0.00 | 55 | |
| 20260502071516 | 0 | 211 | 1.7 | 5.2 | 0.00 | 0.00 | 0.00 | ||
| 20260502070516 | 0 | 222 | 0.0 | 2.6 | 0.00 | 0.00 | 0.00 | ||
| 20260502065516 | 0 | 222 | 0.0 | 3.5 | 0.00 | 0.00 | 0.00 | ||
| 20260502064537 | 0 | 222 | 0.0 | 1.7 | 0.00 | 0.00 | 0.00 | ||
| 20260502063515 | 0 | 221 | 0.9 | 7.0 | 0.00 | 0.00 | 0.00 | ||
| 20260502062515 | 0 | 212 | 2.6 | 6.1 | 0.00 | 0.00 | 0.00 | ||
| 20260502061517 | 0 | 222 | 1.7 | 4.3 | 0.00 | 0.00 | 0.00 | ||
| 20260502060515 | 0 | 222 | 0.0 | 3.5 | 0.00 | 0.00 | 0.00 | ||
| 20260502055537 | 0 | 212 | 0.9 | 7.0 | 0.00 | 0.00 | 0.00 | ||
| 20260502054517 | 0 | 200 | 0.9 | 9.6 | 0.00 | 0.00 | 0.00 | ||
| 20260502053515 | 0 | 204 | 1.7 | 4.3 | 0.00 | 0.00 | 0.00 | ||
| 20260502052515 | 0 | 189 | 0.0 | 1.7 | 0.00 | 0.00 | 0.00 | ||
| 20260502051537 | 0 | 189 | 0.0 | 0.9 | 0.00 | 0.00 | 0.00 | ||
| 20260502050517 | 0 | 0.0 | 5.2 | 0.00 | 0.00 | 0.00 | |||
| 20260502045537 | 0 | 143 | 0.0 | 2.6 | 0.00 | 0.00 | 0.00 | ||
| 20260502044515 | 0 | 195 | 0.0 | 2.6 | 0.00 | 0.00 | 0.00 | ||
| 20260502043515 | 0 | 192 | 0.9 | 4.3 | 0.00 | 0.00 | 0.00 | ||
| 20260502042515 | 0 | 145 | 0.9 | 2.6 | 0.00 | 0.00 | 0.00 | ||
| 20260502041515 | 0 | 0.0 | 0.0 | 0.00 | 0.00 | 0.00 | |||
| 20260502040517 | 0 | 0.0 | 0.0 | 0.00 | 0.00 | 0.00 | |||
| 20260502035517 | 0 | 0.0 | 0.0 | 0.00 | 0.00 | 0.00 | |||
| 20260502034515 | 0 | 0.0 | 0.0 | 0.00 | 0.00 | 0.00 | |||
| 20260502033515 | 0 | 0.0 | 0.0 | 0.00 | 0.00 | 0.00 | |||
| 20260502032535 | 0 | 0.0 | 0.0 | 0.00 | 0.00 | 0.00 | |||
| 20260502031515 | 0 | 0.0 | 0.0 | 0.00 | 0.00 | 0.00 | |||
| 20260502030515 | 0 | 0.0 | 0.0 | 0.00 | 0.00 | 0.00 | |||
| 20260502025535 | 0 | 0.0 | 0.0 | 0.00 | 0.00 | 0.00 | |||
| 20260502024515 | 0 | 0.0 | 0.0 | 0.00 | 0.00 | 0.00 | |||
| 20260502023515 | 0 | 0.0 | 0.9 | 0.00 | 0.00 | 0.00 | |||
| 20260502022517 | 0 | 0.0 | 0.0 | 0.00 | 0.00 | 0.00 | |||
| 20260502021515 | 0 | 0.0 | 0.0 | 0.00 | 0.00 | 0.00 | |||
| 20260502020515 | 0 | 0.0 | 0.0 | 0.00 | 0.00 | 0.00 | |||
| 20260502015535 | 0 | 0.0 | 0.0 | 0.00 | 0.00 | 0.00 | |||
| 20260502014517 | 0 | 0.0 | 0.0 | 0.00 | 0.00 | 0.00 | |||
| 20260502013515 | 0 | 0.0 | 0.0 | 0.00 | 0.00 | 0.00 | |||
| 20260502012516 | 0 | 0.0 | 0.0 | 0.00 | 0.00 | 0.00 | |||
| 20260502011535 | 0 | 0.0 | 0.0 | 0.00 | 0.00 | 0.00 | |||
| 20260502010517 | 0 | 0.0 | 0.0 | 0.00 | 0.00 | 0.00 | |||
| 20260502005515 | 0 | 0.0 | 0.0 | 0.00 | 0.00 | 0.00 | |||
| 20260502004535 | 0 | 0.0 | 0.0 | 0.00 | 0.00 | 0.00 | |||
| 20260502003515 | 0 | 0.0 | 0.0 | 0.00 | 0.00 | 0.00 | |||
| 20260502002516 | 0 | 128 | 0.0 | 1.7 | 0.00 | 0.00 | 0.00 | ||
| 20260502001515 | 0 | 0.0 | 0.0 | 0.00 | 0.00 | 0.00 | |||
| 20260502000515 | 0 | 0.0 | 0.0 | 0.00 | 0.00 | 0.00 | |||
| 20260501235515 | 0 | 0.0 | 0.0 | 0.00 | 0.00 | 0.00 | |||
| 20260501234515 | 0 | 0.0 | 0.0 | 0.00 | 0.00 | 0.00 | |||
| 20260501233515 | 0 | 128 | 0.0 | 0.9 | 0.00 | 0.00 | 0.00 | ||
| 20260501232515 | 0 | 0.0 | 0.0 | 0.00 | 0.00 | 0.00 |